Location: Great Falls
(47.5000°N, 111.3000°W)
Time: 13:12:54
(UTC-07:00)

ISS - Visible Passes

Search period start: 17 January 2018 00:00
Search period end: 27 January 2018 00:00
Orbit: 402 x 407 km, 51.6° (Epoch: 17 January)

Date Brightness Start Highest point End Pass type
(mag) Time Alt. Az. Time Alt. Az. Time Alt. Az.
25 Jan -1.8 19:27:49 10° SSW 19:29:17 22° SSW 19:29:17 22° SSW visible
26 Jan -2.2 18:36:03 10° S 18:38:35 21° SE 18:39:19 19° ESE visible
26 Jan -0.6 20:11:30 10° WSW 20:11:59 14° WSW 20:11:59 14° WSW visible
